Location: Navajo
(48.7922°N, 105.0603°W)
Time: 02:12:09
(UTC+00:00)

KKS-1 - Visible Passes

Search period start: 30 June 2022 00:00
Search period end: 10 July 2022 00:00
Orbit: 636 x 647 km, 98.2° (Epoch: 29 June)

Date Brightness Start Highest point End Pass type
(mag) Time Alt. Az. Time Alt. Az. Time Alt. Az.
30 Jun ? 05:05:11 10° NNE 05:09:41 74° ESE 05:13:09 17° S visible
30 Jun ? 06:42:56 10° NNW 06:45:39 16° WNW 06:48:21 10° W visible
01 Jul ? 03:53:58 10° NE 03:56:41 16° E 03:59:23 10° SE visible
01 Jul ? 05:29:12 10° N 05:33:39 66° WNW 05:37:22 14° SSW visible
01 Jul ? 07:08:46 10° NW 07:09:18 10° NW 07:09:50 10° WNW visible
02 Jul ? 04:17:10 10° NE 04:20:55 26° E 04:24:00 13° SE visible
02 Jul ? 05:53:22 10° N 05:57:33 39° WNW 06:01:37 10° SW visible
03 Jul ? 04:40:47 10° NNE 04:45:03 42° E 04:48:14 17° SSE visible
03 Jul ? 06:17:43 10° N 06:21:22 25° WNW 06:24:59 10° WSW visible
04 Jul ? 05:04:37 10° NNE 05:09:07 73° ESE 05:12:29 17° S visible
04 Jul ? 06:42:20 10° NNW 06:45:06 16° WNW 06:47:51 10° W visible
05 Jul ? 03:53:28 10° NE 03:56:07 15° E 03:58:44 10° SE visible
05 Jul ? 05:28:38 10° N 05:33:06 68° WNW 05:36:42 15° SSW visible
05 Jul ? 07:07:59 10° NW 07:08:45 10° NW 07:09:31 10° WNW visible
06 Jul ? 04:16:38 10° NE 04:20:21 25° E 04:23:19 13° SE visible
06 Jul ? 05:52:48 10° N 05:57:00 40° WNW 06:00:56 11° SW visible
07 Jul ? 04:40:14 10° NNE 04:44:29 41° E 04:47:33 17° SSE visible
07 Jul ? 06:17:08 10° N 06:20:49 25° WNW 06:24:28 10° WSW visible
08 Jul ? 05:04:04 10° NNE 05:08:33 71° ESE 05:11:46 18° S visible
08 Jul ? 06:41:44 10° NNW 06:44:33 17° WNW 06:47:21 10° W visible
09 Jul ? 03:52:58 10° NE 03:55:31 15° E 03:58:04 10° SE visible
09 Jul ? 05:28:04 10° N 05:32:32 69° WNW 05:35:59 16° SSW visible
09 Jul ? 07:07:15 10° NW 07:08:12 11° NW 07:09:09 10° WNW visible
